Location: Agadir Irigdalene
(31.2522°N, 8.7797°W)
Time: 16:16:56
(UTC+00:00)

H-2A R/B - Pass Details

Date: 01 December 2020
Orbit: 734 x 836 km, 98.2° (Epoch: 25 January)

Event Time Altitude Azimuth Distance (km) Brightness Sun altitude
Rises 19:04:52 0° 148° (SSE) 3,335 5.1 -19.5°
Reaches altitude 10° 19:07:21 10° 141° (SE) 2,393 4.3 -20.0°
Enters shadow 19:08:48 18° 133° (SE) 1,882 3.7 -20.3°
Exits shadow 19:16:04 16° 10° (N) 1,982 3.9 -21.8°
Drops below altitude 10° 19:17:05 10° 5° (N) 2,344 4.3 -22.0°
Sets 19:19:29 0° 358° (N) 3,259 5.2 -22.5°
